Location: Copeville
(33.0796°N, 96.4155°W)
Time: 08:38:14
(UTC+00:00)

SL-27 R/B - Pass Details

Date: 08 December 2021
Orbit: 416 x 464 km, 74.7° (Epoch: 26 January)

Event Time Altitude Azimuth Distance (km) Brightness Sun altitude
Exits shadow 12:28:00 11° 321° (NW) 1,539 4.6 -10.2°
Maximum altitude 12:30:59 31° 259° (W) 818 3.3 -9.6°
Drops below altitude 10° 12:34:04 10° 195° (SSW) 1,570 5.2 -9.0°
Sets 12:36:16 0° 185° (S) 2,427 6.3 -8.5°
